Powrót do katalogu

CZ-4 DEB

AktywnySSO
NORAD 20912·DEBRIS·🇨🇳 China

Wystrzelony Sep 3, 1990 z Taiyuan Satellite Launch Center

Loading…

Następne Przeloty (najbliższe 24 godziny)

TLE

ŚwieżeSource: Space-Track

Epoka: Sep 14, 2026, 18:33 UTC

1 20912U 90081BV  26257.77336737  .00001040  00000-0  36440-3 0  9992
2 20912  98.5487 257.0919 0013318   9.0273 166.4660 14.37127746862420

Śledź CZ-4 DEB w czasie rzeczywistym z AllMySat

Download on the App Store